Location: ?????
(31.8092°N, 35.2590°E)
Time: 04:38:03
(UTC+00:00)

Cosmos 2360 Rocket - Pass Details

Date: 20 October 2021
Orbit: 832 x 846 km, 71.0° (Epoch: 07 December)

Event Time Altitude Azimuth Distance (km) Brightness Sun altitude
Rises 15:48:32 0° 164° (SSE) 3,365 5.2 -10.8°
Reaches altitude 10° 15:51:28 10° 150° (SSE) 2,438 4.4 -11.4°
Maximum altitude 15:55:39 22° 101° (E) 1,748 3.3 -12.3°
Enters shadow 15:58:27 15° 64° (ENE) 2,092 3.7 -12.9°
